Location: Newark
(23.3970°S, 47.6010°W)
Time: 14:14:02
(UTC+00:00)

deb Explorer IX - Pass Details

Date: 23 February 2020
Orbit: 547 x 1100 km, 38.8° (Epoch: 29 March)

Event Time Altitude Azimuth Distance (km) Brightness Sun altitude
Rises 22:47:43 0° 315° (NW) 3,287 ? -14.9°
Reaches altitude 10° 22:50:04 10° 319° (NW) 2,443 ? -15.4°
Maximum altitude 22:55:53 62° 38° (NE) 1,047 ? -16.7°
Enters shadow 23:01:24 16° 115° (ESE) 2,401 ? -17.8°
Drops below altitude 10° 23:02:38 10° 117° (ESE) 2,826 - -18.1°
Sets 23:05:31 0° 120° (ESE) 3,839 - -18.7°
